Showing default

BUGSAT 1, 40014

Orbit data source: Space-Track

BUGSAT 1, 40014 is a payload satellite owned by Satellogic SA (AR) in SSO that was launched on Thu, 19 Jun 2014 UTC via a DNEPR launch vehicle from the Orenburg, Russia (OREN). Payloads include a variety of satellites, spacecraft, and rockets equipped with specific instruments for various scientific and technological missions. These include communications satellites like Starlink; space stations such as the ISS; scientific satellites like the Hubble; Earth observation satellites from companies like Planet Labs, Umbra, and HawkEye 360; GPS; miniature CubeSats for education and research; and military/defense satellites.

Loading next visibility...
BUGSAT 1 details
Identifier
40014, 2014-033E
Orbit
SSO
Last TLE update4 hours ago
Origin
Flag of ARSatellogic SA (AR / ARGN)
ManufacturerSatellogic SA
MissionOperational Commercial Imaging
Bus & MotorBUGSAT, Unknown motor
Mass22 kg wet, 22 kg dry
Launch date (UTC)
2014-06-19 (10 years ago)
Launch vehicle
DNEPR
Launch site
Orenburg, Russia (OREN)
Object type
Payload
Rocket body
Debris
Shape & HBRBox, 0.5 m
Radar Cross Section0.263 m², Medium (>0.1 m² and < 1m²)

Expand to show TLE details & history

TLE from 4 hours ago
0 BUGSAT 1
1 40014U 14033E   24337.14130431  .00010547  00000-0  68778-3 0  9992
2 40014  98.1039  27.4603 0031713 290.2205  69.5612 15.07679529570921
Epoch: 2024-12-02T03:23Z
Definitive object data (Epoch: 2024-12-02T03:23:28.692Z)
Latitude-0.00004°
Longitude-94.87867°
Altitude538.74 km
Speed7.597 km/s
True Right ascension01h 49m 50s
True Declination0° 00' 00"
Sunlit
Object was in full shadow at TLE epoch
Visualization TLE readout
Latitude-46.38617°
Longitude76.75751°
Altitude551.195 km
Speed7.59 km/s
Apparent Right ascension15h 20m 16s
Apparent Declination-47° 23' 17"
Sunlit
Object is in daylight
Visualization observer readout
Local Sidereal Time05:21:02
Azimuth119.031° SE
Elevation-67.081°
Doppler factor1
Orbital elements
Apogee altitude562.247 km
Perigee altitude518.366 km
Semi-major axis6,918.443 km
Eccentricity0.0031713
Inclination98.1039°
RAAN27.4603°
Arg. of periapsis290.2205°
True anomaly69.9022°
Mean anomaly69.5612°
Eccentric anomaly69.73165°
Mean motion3.77164 °/min
BSTAR0.00068778
Orbital period95.45 mins
Loading maneuver chart data...
Loading historical data...
Loading historical data...
Loading historical data...
Loading historical data...
Loading historical data...
Loading historical data...
Loading historical data...

BUGSAT 1 Visibility forecast

Observer location: undefined°, undefined

Span
Click to sort rows by Start time (UTC) header in descending order
Start Az.
Max El. time (UTC)
Max El. Az.
Max El.
End time (UTC)
End Az.
6 mins2024-12-02 16:41:57.118Z3.23° NNE2024-12-02 16:44:57.118Z292.999° NW41.314°2024-12-02 16:47:57.118Z208.414° SW
5 mins2024-12-03 03:25:57.118Z150.738° SSE2024-12-03 03:27:57.118Z61.499° ENE42.799°2024-12-03 03:30:57.118Z354.12° N
|